Regional Weather Roundup
Issued by NWS Newport/Morehead, NC

Current Version | Previous Version | Text Only | Print | Product List | Glossary Off
Versions: 1 2 3 4 5 6 7 8 9 10 11 12 13 14 15 16 17 18 19 20 21 22 23 24 25 26 27 28 29 30 31 32 33 34 35 36 37 38 39 40 41 42 43 44 45 46 47 48 49 50
000 ASUS42 KMHX 041712 RWRMHX WEATHER ROUNDUP FOR EASTERN NORTH CAROLINA NATIONAL WEATHER SERVICE NEWPORT/MOREHEAD CITY NC 1200 PM EST WED MAR 04 2015 NOTE: "FAIR" INDICATES FEW OR NO CLOUDS BELOW 12,000 FEET WITH NO SIGNIFICANT WEATHER AND/OR OBSTRUCTIONS TO VISIBILITY NCZ015>017-031-032-045>047-102-103-041800- NORTH COAST CITY SKY/WX TMP DP RH WIND PRES REMARKS EDENTON CLOUDY 57 57 100 W9 30.00F FOG ELIZABETH CITY CLOUDY 63 59 87 SW17G24 29.99F KITTY HAWK MOSUNNY 69 63 79 W7 29.99F MANTEO PTSUNNY 68 59 73 SW14 30.00F $$ NCZ045>047-081-094-103-104-041800- CENTRAL COAST CITY SKY/WX TMP DP RH WIND PRES REMARKS FRISCO FOG 56 56 100 W12 30.05S VSB 1/2 SWANQUARTER N/A 61 N/A N/A S20G26 29.97S $$ NCZ095-097-098-100-101-041800- SOUTHERN COAST CITY SKY/WX TMP DP RH WIND PRES REMARKS BEAUFORT FOG 60 60 100 SW18G26 30.06F VSB 1/4 CEDAR ISLAND N/A 64 N/A N/A SW17G24 30.06F JACKSONVILLE MOSUNNY 77 64 64 SW15G28 30.03F PINEY ISLAND N/A N/A N/A N/A MISG 30.04F WILMINGTON PTSUNNY 73 65 75 SW25G37 30.05F $$ NCZ011>013-027>030-043-044-078>080-089-090>093-098-041800- COASTAL PLAIN CITY SKY/WX TMP DP RH WIND PRES REMARKS AHOSKIE CLOUDY 57 55 91 SW5 29.99S CLINTON N/A 74 64 70 SW22G29 30.03S ELIZABETHTOWN CLOUDY 75 62 64 SW15G23 30.03F GOLDSBORO NOT AVBL GREENVILLE CLOUDY 63 61 94 W7 30.03F FOG HAVELOCK MOSUNNY 73 63 70 SW18G25 30.05S KENANSVILLE CLOUDY 75 61 61 SW12G23 30.03S KINSTON PTSUNNY 73 63 68 SW13 30.01F NEW BERN PTSUNNY 78 62 57 SW15G26 30.02F RICHLANDS MOSUNNY 75 63 64 SW22G29 30.03F ROCKY MOUNT CLOUDY 56 55 97 SW12 30.00F FOG WASHINGTON MOSUNNY 73 63 70 SW14G22 30.00F WHITEVILLE CLOUDY 75 65 70 SW7G20 30.04F $$ AMZ130-135-150-152-154-156-158-170-250-252-270-ANZ085-086-088-633-658-670-041800- MARINE OBSERVATIONS STATION/POSITION TIME TEMP WIND PRES WAVE SWELL AIR SEA DIR/SP/G HT/PER HT/PER (UTC) (F) (DEG/KT/KT) (MB) (FT/S) (FT/S) CHESAPEAKE LIGHT 1600 47 220/ 9/ 9 1016.1 64 E VA BEACH 1650 54 54 220/ 12/ 14 1015.2 6/ 8 5/ 8 DUCK 1600 58 35 240/ 12/ 15 1015.3 2 E DUCK 1611 36 N/A 3/ 8 10 NE DUCK 1622 37 N/A 4/ 8 2/11 OREGON INLET 1600 51 45 200/ 19/ 22 1016.5 HATTERAS CG 1600 56 45 220/ 12/ 18 1017.8 CAPE LOOKOUT 1700 60 230/ 10/ 13 1017.9 BEAUFORT LAB 1600 57 44 220/ 6/ 10 1017.4 27 SE WRIGHTSVLE NOT AVBL 5 SE WRIGHTSVLE NOT AVBL 225 S CAPE HAT 1650 72 73 220/ 16/ 19 1023.1 6/10 5/10 41 SE CHARLESTON 1650 69 69 220/ 16/ 19 1019.2 5/ 8 2/ 9 $$

USA.gov is the U.S. government's official web portal to all federal, state and local government web resources and services.